When you browse on this site, cookies collect data to enhance your experience and personalize the content and advertising you see.
Visit our Privacy Policy to learn more. By continuing to use the site, you agree to this use of cookies and data.
  • In France
  • List of Countries
  • For 7 days
  • Water Temperature
  • Satellite Maps
  • Weather Map
  • Weather Widgets
  • user-avatar
    Login

    Hourly Weather Bulla Regia

    Today, 22 July, Monday

    Time Temperature Precipitation Wind Pressure Humidity
    00:00 +25°C° 0 mm 2 mps 708 mmHg 47%
    01:00 +25°C° 0 mm 1 mps 708 mmHg 47%
    02:00 +24°C° 0 mm 1 mps 707 mmHg 49%
    03:00 +24°C° 0 mm 1 mps 707 mmHg 50%
    04:00 +21°C° 0 mm 0 mps 706 mmHg 51%
    05:00 +24°C° 0 mm 1 mps 707 mmHg 49%
    06:00 +25°C° 0 mm 1 mps 707 mmHg 47%
    07:00 +25°C° 0 mm 1 mps 708 mmHg 45%
    08:00 +27°C° 0 mm 1 mps 708 mmHg 40%
    09:00 +29°C° 0 mm 2 mps 708 mmHg 35%
    10:00 +31°C° 0 mm 2 mps 709 mmHg 30%
    11:00 +33°C° 0 mm 3 mps 708 mmHg 26%
    12:00 +34°C° 0 mm 3 mps 708 mmHg 21%
    13:00 +36°C° 0 mm 3 mps 708 mmHg 17%
    14:00 +36°C° 0 mm 4 mps 708 mmHg 16%
    15:00 +37°C° 0 mm 4 mps 708 mmHg 15%
    16:00 +37°C° 0 mm 4 mps 708 mmHg 14%
    17:00 +36°C° 0 mm 4 mps 707 mmHg 16%
    18:00 +35°C° 0 mm 3 mps 707 mmHg 19%
    19:00 +33°C° 0 mm 3 mps 707 mmHg 22%
    20:00 +30°C° 0 mm 3 mps 707 mmHg 28%
    21:00 +28°C° 0 mm 2 mps 707 mmHg 34%
    22:00 +26°C° 0 mm 2 mps 707 mmHg 40%
    23:00 +25°C° 0 mm 1 mps 707 mmHg 42%

    Tomorrow, 23 July, Tuesday

    Time Temperature Precipitation Wind Pressure Humidity
    00:00 +24°C° 0 mm 1 mps 706 mmHg 44%
    01:00 +23°C° 0 mm 1 mps 706 mmHg 46%
    02:00 +21°C° 0 mm 0 mps 706 mmHg 47%
    03:00 +21°C° 0 mm 0 mps 706 mmHg 47%
    04:00 +20°C° 0 mm 0 mps 705 mmHg 47%
    05:00 +21°C° 0 mm 0 mps 706 mmHg 45%
    06:00 +22°C° 0 mm 0 mps 706 mmHg 42%
    07:00 +23°C° 0 mm 0 mps 706 mmHg 39%
    08:00 +27°C° 0 mm 1 mps 706 mmHg 34%
    09:00 +29°C° 0 mm 1 mps 707 mmHg 29%
    10:00 +31°C° 0 mm 2 mps 707 mmHg 23%
    11:00 +32°C° 0 mm 2 mps 707 mmHg 20%
    12:00 +35°C° 0 mm 2 mps 707 mmHg 17%
    13:00 +36°C° 0 mm 3 mps 706 mmHg 14%
    14:00 +36°C° 0 mm 2 mps 706 mmHg 13%
    15:00 +37°C° 0 mm 2 mps 706 mmHg 12%
    16:00 +37°C° 0 mm 2 mps 706 mmHg 11%
    17:00 +36°C° 0 mm 2 mps 705 mmHg 14%
    18:00 +35°C° 0 mm 2 mps 705 mmHg 16%
    19:00 +34°C° 0 mm 2 mps 705 mmHg 18%
    20:00 +31°C° 0 mm 2 mps 705 mmHg 25%
    21:00 +29°C° 0 mm 2 mps 705 mmHg 33%
    22:00 +26°C° 0 mm 2 mps 705 mmHg 40%
    23:00 +26°C° 0 mm 2 mps 705 mmHg 42%

    Day after tomorrow, 24 July, Wednesday

    Time Temperature Precipitation Wind Pressure Humidity
    00:00 +25°C° 0 mm 1 mps 704 mmHg 43%
    01:00 +24°C° 0 mm 1 mps 704 mmHg 45%
    02:00 +24°C° 0 mm 1 mps 704 mmHg 44%
    03:00 +23°C° 0 mm 1 mps 703 mmHg 44%
    04:00 +21°C° 0 mm 0 mps 703 mmHg 43%
    05:00 +24°C° 0 mm 1 mps 703 mmHg 39%
    06:00 +25°C° 0 mm 1 mps 704 mmHg 34%
    07:00 +26°C° 0 mm 1 mps 704 mmHg 30%
    08:00 +29°C° 0 mm 1 mps 704 mmHg 26%
    09:00 +31°C° 0 mm 1 mps 705 mmHg 21%
    10:00 +34°C° 0 mm 2 mps 705 mmHg 17%
    11:00 +36°C° 0 mm 2 mps 705 mmHg 15%
    12:00 +36°C° 0 mm 1 mps 705 mmHg 14%
    13:00 +37°C° 0 mm 1 mps 705 mmHg 12%
    14:00 +39°C° 0 mm 2 mps 705 mmHg 12%
    15:00 +39°C° 0 mm 2 mps 704 mmHg 11%
    16:00 +39°C° 0 mm 3 mps 704 mmHg 11%
    17:00 +38°C° 0 mm 3 mps 704 mmHg 14%
    18:00 +37°C° 0 mm 4 mps 704 mmHg 16%
    19:00 +35°C° 0 mm 5 mps 704 mmHg 19%
    20:00 +33°C° 0 mm 4 mps 704 mmHg 25%
    21:00 +30°C° 0 mm 3 mps 704 mmHg 31%
    22:00 +27°C° 0 mm 2 mps 704 mmHg 37%
    23:00 +27°C° 0 mm 1 mps 704 mmHg 38%

    25 July, Thursday

    Time Temperature Precipitation Wind Pressure Humidity
    00:00 +26°C° 0 mm 1 mps 703 mmHg 39%
    01:00 +23°C° 0 mm 0 mps 703 mmHg 39%
    02:00 +23°C° 0 mm 0 mps 703 mmHg 40%
    03:00 +22°C° 0 mm 0 mps 703 mmHg 41%
    04:00 +22°C° 0 mm 0 mps 702 mmHg 42%
    05:00 +23°C° 0 mm 0 mps 703 mmHg 39%
    06:00 +24°C° 0 mm 0 mps 703 mmHg 37%
    07:00 +25°C° 0 mm 0 mps 703 mmHg 35%
    08:00 +29°C° 0 mm 1 mps 704 mmHg 30%
    09:00 +31°C° 0 mm 1 mps 704 mmHg 25%
    10:00 +34°C° 0 mm 1 mps 705 mmHg 20%
    11:00 +35°C° 0 mm 1 mps 705 mmHg 18%
    12:00 +37°C° 0 mm 2 mps 704 mmHg 16%
    13:00 +39°C° 0 mm 2 mps 704 mmHg 14%
    14:00 +39°C° 0 mm 2 mps 704 mmHg 14%
    15:00 +40°C° 0 mm 3 mps 704 mmHg 13%
    16:00 +41°C° 0 mm 4 mps 703 mmHg 13%
    17:00 +40°C° 0 mm 4 mps 703 mmHg 15%
    18:00 +38°C° 0 mm 4 mps 703 mmHg 17%
    19:00 +36°C° 0 mm 5 mps 703 mmHg 19%
    20:00 +34°C° 0 mm 4 mps 703 mmHg 25%
    21:00 +31°C° 0 mm 3 mps 703 mmHg 32%
    22:00 +28°C° 0 mm 1 mps 703 mmHg 38%
    23:00 +28°C° 0 mm 1 mps 703 mmHg 39%

    26 July, Friday

    Time Temperature Precipitation Wind Pressure Humidity
    00:00 +27°C° 0 mm 1 mps 703 mmHg 41%
    01:00 +26°C° 0 mm 1 mps 702 mmHg 42%
    02:00 +23°C° 0 mm 0 mps 702 mmHg 43%
    03:00 +23°C° 0 mm 0 mps 702 mmHg 44%
    04:00 +22°C° 0 mm 0 mps 701 mmHg 45%
    05:00 +23°C° 0 mm 0 mps 702 mmHg 43%
    06:00 +24°C° 0 mm 0 mps 702 mmHg 40%
    07:00 +25°C° 0 mm 0 mps 702 mmHg 38%
    08:00 +30°C° 0 mm 1 mps 703 mmHg 33%
    09:00 +32°C° 0 mm 1 mps 703 mmHg 27%
    10:00 +34°C° 0 mm 1 mps 703 mmHg 22%
    11:00 +36°C° 0 mm 1 mps 703 mmHg 20%
    12:00 +38°C° 0 mm 2 mps 703 mmHg 17%
    13:00 +40°C° 0 mm 2 mps 703 mmHg 15%
    14:00 +40°C° 0 mm 4 mps 703 mmHg 16%
    15:00 +40°C° 0 mm 5 mps 703 mmHg 18%
    16:00 +40°C° 0 mm 7 mps 702 mmHg 19%
    17:00 +38°C° 0 mm 7 mps 702 mmHg 22%
    18:00 +35°C° 0 mm 6 mps 702 mmHg 25%
    19:00 +34°C° 0 mm 5 mps 702 mmHg 28%
    20:00 +32°C° 0 mm 4 mps 703 mmHg 34%
    21:00 +28°C° 0 mm 3 mps 703 mmHg 39%
    22:00 +26°C° 0 mm 1 mps 703 mmHg 45%
    23:00 +26°C° 0 mm 1 mps 703 mmHg 46%

    27 July, Saturday

    Time Temperature Precipitation Wind Pressure Humidity
    00:00 +25°C° 0 mm 1 mps 702 mmHg 47%
    01:00 +25°C° 0 mm 1 mps 702 mmHg 48%
    02:00 +24°C° 0 mm 1 mps 702 mmHg 48%
    03:00 +24°C° 0 mm 1 mps 701 mmHg 48%
    04:00 +23°C° 0 mm 1 mps 701 mmHg 48%
    05:00 +24°C° 0 mm 1 mps 701 mmHg 46%
    06:00 +25°C° 0 mm 1 mps 702 mmHg 44%
    07:00 +26°C° 0 mm 1 mps 702 mmHg 41%
    08:00 +28°C° 0 mm 1 mps 703 mmHg 36%
    09:00 +30°C° 0 mm 2 mps 703 mmHg 31%
    10:00 +32°C° 0 mm 2 mps 704 mmHg 26%
    11:00 +34°C° 0 mm 3 mps 704 mmHg 24%
    12:00 +36°C° 0 mm 3 mps 704 mmHg 21%
    13:00 +37°C° 0 mm 4 mps 704 mmHg 19%
    14:00 +37°C° 0 mm 4 mps 703 mmHg 21%
    15:00 +37°C° 0 mm 5 mps 703 mmHg 23%
    16:00 +38°C° 0 mm 6 mps 703 mmHg 25%
    17:00 +35°C° 0 mm 5 mps 702 mmHg 29%
    18:00 +33°C° 0 mm 4 mps 702 mmHg 34%
    19:00 +32°C° 0 mm 4 mps 702 mmHg 38%
    20:00 +29°C° 0 mm 3 mps 702 mmHg 47%
    21:00 +26°C° 0 mm 2 mps 703 mmHg 55%
    22:00 +24°C° 0 mm 1 mps 703 mmHg 64%
    23:00 +24°C° 0 mm 1 mps 703 mmHg 67%
    Show more